sat.trackr.live / text

‹ back to catalog

STARLINK-3100

NORAD 49144 · 2021-082Q

PAYLOAD ACTIVE UNKNOWN

§ Identity

Operator
Country
US
Launch date
2021-09-14
Launch site
AFWTR
Launch vehicle
Mass (kg)
RCS (m²)

Purposes: comms

External: N2YO · Heavens-Above · Gunter

§ Orbital elements

Epoch: 2026-05-25T03:23:55.156704Z

Period
96.11 min
Inclination
69.9994°
Eccentricity
0.0003330
Mean motion
14.98330712 rev/d
Perigee alt
569.7 km
Apogee alt
574.4 km
Semi-major
6,950.2 km
B*
6.3252e-5
RAAN
101.6841°
Arg perigee
267.7927°
Mean anomaly
92.2851°
Rev number
25,743

§ Raw data

STARLINK-31001 49144U 21082Q   26145.14161061  .00000662  00000+0  63252-4 0  99982 49144  69.9994 101.6841 0003330 267.7927  92.2851 14.98330712257436

JSON: /api/v1/satellites/49144 · /tle

For live sub-satellite position, see the globe view (requires WebGL).

§ Visibility from observer

Set your observer location to see the next 7 days of passes ≥ 10°. The values pass through the URL so the page stays shareable.

No JS? Fill the form by hand. The geolocation button needs JavaScript.

§ Radio — SatNOGS DB

ModeDescriptionDownlinkUplink
CW Ku-band 11325 MHz beacon 11.325 GHz
CW Ku-band 11575 MHz beacon 11.575 GHz
CW Ku-band 11950 MHz beacon 11.950 GHz
CW Ku-band 12450 MHz beacon 12.450 GHz

4 transmitters · refreshed weekly from db.satnogs.org